Tracking 25710 objects as of 4-Jul-2022
HD Live streaming from Space Station
objects crossing your sky now

STARLINK-1856

Track STARLINK-1856 now!
10-day predictions
STARLINK-1856 is classified as:


NORAD ID: 47143
Int'l Code: 2020-088X
Perigee: 553.3 km
Apogee: 555.4 km
Inclination: 53.1 °
Period: 95.6 minutes
Semi major axis: 6925 km
RCS: Unknown
Launch date: November 25, 2020
Source: United States (US)
Launch site: AIR FORCE EASTERN TEST RANGE (AFETR)
aabbcc
Your satellite tracking list
Your tracking list is empty




NASA's NSSDC Master Catalog

Two Line Element Set (TLE):
1 47143U 20088X   22185.42768736 -.00001045  00000-0 -51273-4 0  9992
2 47143  53.0533 206.2391 0001557  63.6537 296.4612 15.06399331 89367
Source of the keplerian elements: AFSPC